• In Uzbekistan
  • List of Countries
  • For 7 days
  • Water Temperature
  • Satellite Maps
  • Weather Map
  • Weather Widgets
  • user-avatar
    Login

    Hourly Weather Phin

    Today, 18 February, Sunday

    Time Temperature Precipitation Wind Pressure Humidity
    00:00 +21°C° 0 mm 2 mps 735 mmHg 85%
    01:00 +21°C° 0 mm 1 mps 735 mmHg 89%
    02:00 +21°C° 0 mm 1 mps 735 mmHg 90%
    03:00 +21°C° 0 mm 1 mps 735 mmHg 91%
    04:00 +20°C° 0 mm 1 mps 735 mmHg 92%
    05:00 +21°C° 0 mm 1 mps 735 mmHg 91%
    06:00 +21°C° 0 mm 1 mps 736 mmHg 90%
    07:00 +21°C° 0 mm 1 mps 736 mmHg 89%
    08:00 +25°C° 0 mm 1 mps 736 mmHg 74%
    09:00 +28°C° 0 mm 1 mps 737 mmHg 59%
    10:00 +32°C° 0 mm 1 mps 737 mmHg 44%
    11:00 +34°C° 0 mm 1 mps 737 mmHg 39%
    12:00 +36°C° 0 mm 1 mps 736 mmHg 33%
    13:00 +39°C° 0 mm 1 mps 736 mmHg 28%
    14:00 +39°C° 0 mm 1 mps 735 mmHg 29%
    15:00 +37°C° 0 mm 1 mps 735 mmHg 30%
    16:00 +36°C° 0 mm 1 mps 734 mmHg 31%
    17:00 +34°C° 0 mm 2 mps 735 mmHg 42%
    18:00 +31°C° 0 mm 2 mps 735 mmHg 52%
    19:00 +28°C° 0 mm 2 mps 735 mmHg 62%
    20:00 +27°C° 0 mm 2 mps 735 mmHg 69%
    21:00 +26°C° 0 mm 2 mps 736 mmHg 75%
    22:00 +25°C° 0 mm 2 mps 736 mmHg 82%
    23:00 +24°C° 0 mm 2 mps 736 mmHg 83%

    Tomorrow, 19 February, Monday

    Time Temperature Precipitation Wind Pressure Humidity
    00:00 +24°C° 0 mm 2 mps 736 mmHg 85%
    01:00 +23°C° 0 mm 2 mps 736 mmHg 87%
    02:00 +23°C° 0 mm 2 mps 736 mmHg 88%
    03:00 +23°C° 0 mm 2 mps 736 mmHg 89%
    04:00 +23°C° 0 mm 2 mps 735 mmHg 90%
    05:00 +23°C° 0 mm 2 mps 736 mmHg 89%
    06:00 +23°C° 0 mm 1 mps 736 mmHg 89%
    07:00 +23°C° 0 mm 1 mps 736 mmHg 89%
    08:00 +26°C° 0 mm 1 mps 737 mmHg 76%
    09:00 +29°C° 0 mm 1 mps 737 mmHg 63%
    10:00 +32°C° 0 mm 1 mps 738 mmHg 50%
    11:00 +34°C° 0 mm 1 mps 737 mmHg 44%
    12:00 +36°C° 0 mm 2 mps 736 mmHg 38%
    13:00 +38°C° 0 mm 2 mps 735 mmHg 32%
    14:00 +38°C° 0 mm 2 mps 735 mmHg 34%
    15:00 +37°C° 0 mm 2 mps 734 mmHg 35%
    16:00 +37°C° 0 mm 2 mps 734 mmHg 37%
    17:00 +34°C° 0 mm 2 mps 734 mmHg 46%
    18:00 +31°C° 0 mm 2 mps 734 mmHg 56%
    19:00 +28°C° 0 mm 3 mps 735 mmHg 65%
    20:00 +27°C° 0 mm 2 mps 735 mmHg 70%
    21:00 +26°C° 0 mm 2 mps 736 mmHg 75%
    22:00 +25°C° 0 mm 2 mps 736 mmHg 81%
    23:00 +25°C° 0 mm 2 mps 736 mmHg 82%

    Day after tomorrow, 20 February, Tuesday

    Time Temperature Precipitation Wind Pressure Humidity
    00:00 +24°C° 0 mm 2 mps 735 mmHg 84%
    01:00 +24°C° 0 mm 2 mps 735 mmHg 86%
    02:00 +23°C° 0 mm 2 mps 735 mmHg 88%
    03:00 +23°C° 0 mm 1 mps 735 mmHg 89%
    04:00 +23°C° 0 mm 1 mps 734 mmHg 91%
    05:00 +23°C° 0 mm 1 mps 735 mmHg 90%
    06:00 +23°C° 0 mm 1 mps 735 mmHg 90%
    07:00 +23°C° 0 mm 1 mps 735 mmHg 89%
    08:00 +27°C° 0 mm 1 mps 736 mmHg 74%
    09:00 +30°C° 0 mm 1 mps 737 mmHg 60%
    10:00 +32°C° 0 mm 0 mps 737 mmHg 45%
    11:00 +36°C° 0 mm 1 mps 736 mmHg 41%
    12:00 +37°C° 0 mm 1 mps 735 mmHg 36%
    13:00 +39°C° 0 mm 1 mps 735 mmHg 32%
    14:00 +39°C° 0 mm 1 mps 734 mmHg 33%
    15:00 +37°C° 0 mm 1 mps 733 mmHg 35%
    16:00 +36°C° 0 mm 1 mps 733 mmHg 37%
    17:00 +34°C° 0 mm 1 mps 733 mmHg 44%
    18:00 +32°C° 0 mm 1 mps 733 mmHg 51%
    19:00 +30°C° 0 mm 1 mps 734 mmHg 58%
    20:00 +29°C° 0 mm 2 mps 734 mmHg 66%
    21:00 +28°C° 0 mm 2 mps 734 mmHg 73%
    22:00 +26°C° 0 mm 2 mps 735 mmHg 80%
    23:00 +26°C° 0 mm 2 mps 734 mmHg 82%

    21 February, Wednesday

    Time Temperature Precipitation Wind Pressure Humidity
    00:00 +25°C° 0 mm 2 mps 734 mmHg 84%
    01:00 +24°C° 0 mm 1 mps 734 mmHg 86%
    02:00 +24°C° 0 mm 1 mps 733 mmHg 86%
    03:00 +24°C° 0 mm 1 mps 733 mmHg 86%
    04:00 +24°C° 0 mm 1 mps 733 mmHg 87%
    05:00 +24°C° 0 mm 1 mps 733 mmHg 86%
    06:00 +24°C° 0 mm 1 mps 734 mmHg 84%
    07:00 +24°C° 0 mm 1 mps 735 mmHg 83%
    08:00 +28°C° 0 mm 1 mps 735 mmHg 69%
    09:00 +31°C° 0 mm 1 mps 736 mmHg 55%
    10:00 +35°C° 0 mm 1 mps 736 mmHg 41%
    11:00 +36°C° 0 mm 1 mps 735 mmHg 37%
    12:00 +37°C° 0 mm 1 mps 735 mmHg 34%
    13:00 +39°C° 0 mm 1 mps 734 mmHg 31%
    14:00 +37°C° 0 mm 1 mps 733 mmHg 33%
    15:00 +36°C° 0 mm 1 mps 733 mmHg 35%
    16:00 +35°C° 0 mm 1 mps 732 mmHg 38%
    17:00 +34°C° 0 mm 1 mps 732 mmHg 44%
    18:00 +32°C° 0 mm 1 mps 733 mmHg 51%
    19:00 +30°C° 0 mm 2 mps 733 mmHg 57%
    20:00 +29°C° 0 mm 2 mps 734 mmHg 64%
    21:00 +28°C° 0 mm 2 mps 734 mmHg 71%
    22:00 +26°C° 0 mm 2 mps 734 mmHg 78%
    23:00 +26°C° 0 mm 2 mps 734 mmHg 80%

    22 February, Thursday

    Time Temperature Precipitation Wind Pressure Humidity
    00:00 +25°C° 0 mm 2 mps 734 mmHg 82%
    01:00 +24°C° 0 mm 2 mps 734 mmHg 84%
    02:00 +24°C° 0 mm 2 mps 734 mmHg 84%
    03:00 +24°C° 0 mm 1 mps 734 mmHg 85%
    04:00 +24°C° 0 mm 1 mps 733 mmHg 86%
    05:00 +24°C° 0 mm 1 mps 734 mmHg 85%
    06:00 +24°C° 0 mm 1 mps 735 mmHg 85%
    07:00 +24°C° 0 mm 1 mps 735 mmHg 84%
    08:00 +26°C° 0 mm 1 mps 736 mmHg 75%
    09:00 +29°C° 0 mm 2 mps 736 mmHg 66%
    10:00 +31°C° 0 mm 2 mps 737 mmHg 56%
    11:00 +32°C° 0 mm 2 mps 736 mmHg 52%
    12:00 +34°C° 0 mm 2 mps 736 mmHg 48%
    13:00 +35°C° 0 mm 2 mps 735 mmHg 44%
    14:00 +34°C° 0 mm 2 mps 735 mmHg 47%
    15:00 +34°C° 0 mm 3 mps 734 mmHg 49%
    16:00 +33°C° 0 mm 3 mps 734 mmHg 52%
    17:00 +30°C° 0.1 mm 3 mps 735 mmHg 59%
    18:00 +28°C° 0.1 mm 4 mps 735 mmHg 66%
    19:00 +26°C° 0.1 mm 4 mps 736 mmHg 73%
    20:00 +26°C° 0.2 mm 4 mps 736 mmHg 75%
    21:00 +25°C° 0.2 mm 3 mps 737 mmHg 76%
    22:00 +25°C° 0.2 mm 3 mps 737 mmHg 78%
    23:00 +25°C° 0 mm 3 mps 737 mmHg 79%

    23 February, Friday

    Time Temperature Precipitation Wind Pressure Humidity
    00:00 +25°C° 0 mm 3 mps 737 mmHg 79%
    01:00 +24°C° 0 mm 3 mps 736 mmHg 80%
    02:00 +24°C° 0.1 mm 3 mps 736 mmHg 80%
    03:00 +24°C° 0.1 mm 2 mps 736 mmHg 80%
    04:00 +24°C° 0.1 mm 2 mps 736 mmHg 80%
    05:00 +24°C° 0.4 mm 2 mps 737 mmHg 81%
    06:00 +24°C° 0.4 mm 2 mps 737 mmHg 82%
    07:00 +24°C° 0.4 mm 2 mps 738 mmHg 83%
    08:00 +24°C° 0.6 mm 2 mps 738 mmHg 82%
    09:00 +25°C° 0.6 mm 2 mps 739 mmHg 81%
    10:00 +25°C° 0.6 mm 2 mps 739 mmHg 80%
    11:00 +26°C° 0.4 mm 3 mps 738 mmHg 76%
    12:00 +27°C° 0.4 mm 3 mps 738 mmHg 73%
    13:00 +28°C° 0.4 mm 3 mps 737 mmHg 69%
    14:00 +28°C° 0.2 mm 3 mps 737 mmHg 67%
    15:00 +28°C° 0.2 mm 3 mps 736 mmHg 64%
    16:00 +29°C° 0.2 mm 3 mps 736 mmHg 61%
    17:00 +27°C° 0 mm 3 mps 736 mmHg 66%
    18:00 +26°C° 0 mm 3 mps 736 mmHg 71%
    19:00 +25°C° 0 mm 3 mps 736 mmHg 76%
    20:00 +24°C° 0 mm 3 mps 737 mmHg 78%
    21:00 +24°C° 0 mm 3 mps 737 mmHg 80%
    22:00 +22°C° 0 mm 3 mps 737 mmHg 82%
    23:00 +23°C° 0 mm 2 mps 737 mmHg 83%
    Show more